SR9NLI Weather Reports


Display with metric or nautical units.
time (UTC)temp
F
wind
direction
speed
MPH
gust
MPH
rain 1hr
in
rain 24hr
in
rain mn
in
humidity
%
barometer
mb
20260506170537 67 212 2.0 9.0 0.00 0.00 0.00 100 948.8
20260506170334 67 209 3.0 12.0 0.00 0.00 0.00 100 948.8
20260506170131 68 216 2.0 12.0 0.00 0.00 0.00 100 948.8
20260506170030 68 226 2.0 12.0 0.00 0.00 0.00 100 948.8
20260506165928 68 221 2.0 9.0 0.00 0.00 0.00 100 948.8
20260506165724 68 231 2.0 9.0 0.00 0.00 0.00 100 948.8
20260506165521 68 216 2.0 9.0 0.00 0.00 0.00 100 948.8
20260506165421 68 211 2.0 9.0 0.00 0.00 0.00 100 948.9
20260506165318 68 206 2.0 9.0 0.00 0.00 0.00 100 948.8
20260506165116 68 203 2.0 10.0 0.00 0.00 0.00 100 948.7
20260506164913 68 199 3.0 10.0 0.00 0.00 0.00 100 948.7
20260506164812 68 212 2.0 10.0 0.00 0.00 0.00 100 948.7
20260506164709 68 235 2.0 8.0 0.00 0.00 0.00 100 948.8
20260506164507 68 238 2.0 7.0 0.00 0.00 0.00 100 948.7
20260506164304 68 213 2.0 11.0 0.00 0.00 0.00 100 948.7
20260506164203 68 218 2.0 11.0 0.00 0.00 0.00 100 948.7
20260506164101 68 217 2.0 11.0 0.00 0.00 0.00 100 948.6
20260506163858 68 210 2.0 8.0 0.00 0.00 0.00 100 948.8
20260506163655 68 203 2.0 8.0 0.00 0.00 0.00 100 948.8
20260506163554 68 197 2.0 8.0 0.00 0.00 0.00 100 948.7
20260506163452 68 215 2.0 8.0 0.00 0.00 0.00 100 948.8
20260506163249 68 220 2.0 9.0 0.00 0.00 0.00 100 948.8
20260506163046 68 222 2.0 9.0 0.00 0.00 0.00 100 948.8
20260506162945 68 220 2.0 9.0 0.00 0.00 0.00 100 948.8
20260506162842 68 219 2.0 8.0 0.00 0.00 0.00 100 948.8
20260506162639 68 0 2.0 8.0 0.00 0.00 0.00 100 948.9
20260506162423 68 0 2.0 9.0 0.00 0.00 0.00 100 948.9
20260506162322 68 0 2.0 10.0 0.00 0.00 0.00 100 948.8
20260506162219 68 219 2.0 10.0 0.00 0.00 0.00 100 948.8
20260506162016 68 223 2.0 10.0 0.00 0.00 0.00 100 948.9
20260506161813 68 0 2.0 8.0 0.00 0.00 0.00 100 949.0
20260506161712 68 0 2.0 8.0 0.00 0.00 0.00 100 948.9
20260506161610 68 220 2.0 10.0 0.00 0.00 0.00 100 948.9
20260506161406 68 214 3.0 13.0 0.00 0.00 0.00 100 948.9
20260506161203 69 220 2.0 13.0 0.00 0.00 0.00 100 948.8
20260506161102 69 235 2.0 11.0 0.00 0.00 0.00 100 949.0
20260506160959 69 225 2.0 11.0 0.00 0.00 0.00 100 949.0
20260506160757 69 219 2.0 10.0 0.00 0.00 0.00 100 948.9
20260506160553 69 210 2.0 9.0 0.00 0.00 0.00 100 948.9
20260506160453 69 213 2.0 13.0 0.00 0.00 0.00 100 948.9
20260506160350 69 216 2.0 13.0 0.00 0.00 0.00 100 948.8
20260506160147 69 209 3.0 15.0 0.00 0.00 0.00 100 949.0
20260506155944 69 190 3.0 15.0 0.00 0.00 0.00 100 949.0
20260506155843 69 188 4.0 17.0 0.00 0.00 0.00 100 948.9
20260506155740 69 189 4.0 17.0 0.00 0.00 0.00 100 949.0
20260506155538 69 191 3.0 16.0 0.00 0.00 0.00 100 948.8
20260506155334 70 204 3.0 10.0 0.00 0.00 0.00 100 948.9
20260506155233 70 205 3.0 10.0 0.00 0.00 0.00 100 948.9
20260506155132 70 212 3.0 10.0 0.00 0.00 0.00 100 948.9
20260506154929 70 217 3.0 10.0 0.00 0.00 0.00 100 949.0
20260506154726 70 229 2.0 10.0 0.00 0.00 0.00 100 949.0
20260506154625 70 231 2.0 10.0 0.00 0.00 0.00 100 949.0
20260506154522 70 206 3.0 14.0 0.00 0.00 0.00 100 949.0
20260506154319 70 189 4.0 16.0 0.00 0.00 0.00 100 949.1
20260506154116 70 203 3.0 16.0 0.00 0.00 0.00 100 949.0
20260506154015 70 207 3.0 16.0 0.00 0.00 0.00 100 949.0
20260506153913 70 214 2.0 14.0 0.00 0.00 0.00 100 948.9
20260506153710 70 238 2.0 8.0 0.00 0.00 0.00 100 949.1
20260506153507 70 224 2.0 10.0 0.00 0.00 0.00 100 949.1
20260506153406 70 216 3.0 12.0 0.00 0.00 0.00 100 949.1
20260506153303 69 194 3.0 12.0 0.00 0.00 0.00 100 949.1
20260506153101 69 194 3.0 12.0 0.00 0.00 0.00 100 949.1
20260506152858 69 229 2.0 10.0 0.00 0.00 0.00 100 949.1
20260506152757 69 242 2.0 10.0 0.00 0.00 0.00 100 949.2
20260506152655 69 212 2.0 10.0 0.00 0.00 0.00 100 949.1
20260506152453 69 205 2.0 10.0 0.00 0.00 0.00 100 949.2
20260506152250 69 225 2.0 10.0 0.00 0.00 0.00 100 949.3
20260506152149 69 218 2.0 10.0 0.00 0.00 0.00 100 949.2
20260506152046 69 207 3.0 12.0 0.00 0.00 0.00 100 949.3
20260506151843 69 204 3.0 12.0 0.00 0.00 0.00 100 949.2
20260506151640 69 206 3.0 12.0 0.00 0.00 0.00 100 949.2
20260506151540 69 205 3.0 9.0 0.00 0.00 0.00 100 949.2
20260506151437 69 204 3.0 9.0 0.00 0.00 0.00 100 949.2
20260506151234 69 200 3.0 10.0 0.00 0.00 0.00 100 949.2
20260506151032 69 181 3.0 11.0 0.00 0.00 0.00 100 949.2
20260506150931 69 174 4.0 16.0 0.00 0.00 0.00 100 949.3
20260506150828 69 172 5.0 17.0 0.00 0.00 0.00 100 949.2
20260506150626 69 171 4.0 17.0 0.00 0.00 0.00 100 949.3
20260506150423 70 201 2.0 10.0 0.00 0.00 0.00 100 949.3
20260506150323 70 179 4.0 15.0 0.00 0.00 0.00 100 949.4
20260506150220 70 178 4.0 15.0 0.00 0.00 0.00 100 949.4
20260506150017 70 174 4.0 15.0 0.00 0.00 0.00 100 949.4
20260506145814 70 178 3.0 13.0 0.00 0.00 0.00 100 949.3
20260506145713 70 177 4.0 14.0 0.00 0.00 0.00 100 949.4
20260506145610 70 182 3.0 14.0 0.00 0.00 0.00 100 949.4
20260506145407 69 188 4.0 14.0 0.00 0.00 0.00 100 949.3
20260506145204 69 184 4.0 14.0 0.00 0.00 0.00 100 949.4
20260506145104 69 185 4.0 14.0 0.00 0.00 0.00 100 949.3
20260506145002 69 181 4.0 15.0 0.00 0.00 0.00 100 949.3
20260506144758 69 187 4.0 15.0 0.00 0.00 0.00 100 949.5
20260506144555 69 188 4.0 14.0 0.00 0.00 0.00 100 949.5
20260506144455 69 189 4.0 14.0 0.00 0.00 0.00 100 949.5
20260506144353 69 191 4.0 13.0 0.00 0.00 0.00 100 949.5
20260506144149 69 192 4.0 15.0 0.00 0.00 0.00 100 949.4
20260506143946 69 191 4.0 15.0 0.00 0.00 0.00 100 949.4
20260506143845 69 194 3.0 15.0 0.00 0.00 0.00 100 949.5
20260506143743 70 191 4.0 15.0 0.00 0.00 0.00 100 949.3
20260506143540 70 198 4.0 16.0 0.00 0.00 0.00 100 949.3
20260506143337 70 203 3.0 13.0 0.00 0.00 0.00 100 949.5
20260506143236 70 204 2.0 9.0 0.00 0.00 0.00 100 949.5
20260506143134 70 201 2.0 13.0 0.00 0.00 0.00 100 949.4
20260506142931 70 192 3.0 14.0 0.00 0.00 0.00 100 949.6
20260506142728 70 196 3.0 14.0 0.00 0.00 0.00 100 949.4
20260506142627 70 210 3.0 14.0 0.00 0.00 0.00 100 949.5
20260506142525 70 204 3.0 9.0 0.00 0.00 0.00 100 949.5
20260506142321 70 201 3.0 10.0 0.00 0.00 0.00 100 949.5
20260506142118 70 193 3.0 12.0 0.00 0.00 0.00 100 949.4
20260506142017 70 200 3.0 12.0 0.00 0.00 0.00 100 949.4
20260506141914 70 198 2.0 12.0 0.00 0.00 0.00 100 949.5
20260506141711 70 206 2.0 12.0 0.00 0.00 0.00 100 949.5
20260506141508 70 195 3.0 16.0 0.00 0.00 0.00 100 949.6
20260506141407 70 186 5.0 19.0 0.00 0.00 0.00 100 949.4
20260506141304 70 185 5.0 19.0 0.00 0.00 0.00 100 949.4
20260506141101 70 176 5.0 19.0 0.00 0.00 0.00 100 949.4
20260506140858 70 177 5.0 17.0 0.00 0.00 0.00 100 949.4
20260506140757 70 177 4.0 17.0 0.00 0.00 0.00 100 949.4
20260506140654 71 185 4.0 16.0 0.00 0.00 0.00 100 949.4
20260506140452 72 204 2.0 12.0 0.00 0.00 0.00 100 949.4
20260506140248 72 213 2.0 12.0 0.00 0.00 0.00 100 949.4
20260506140147 73 212 3.0 15.0 0.00 0.00 0.00 100 949.4
20260506140045 73 213 2.0 15.0 0.00 0.00 0.00 100 949.4
20260506135842 74 226 2.0 15.0 0.00 0.00 0.00 100 949.4
20260506135638 74 244 2.0 11.0 0.00 0.00 0.00 100 949.4
20260506135537 74 239 3.0 11.0 0.00 0.00 0.00 100 949.4
20260506135435 74 241 2.0 11.0 0.00 0.00 0.00 100 949.3
20260506135232 74 240 2.0 9.0 0.00 0.00 0.00 100 949.3
20260506135029 73 241 2.0 12.0 0.00 0.00 0.00 100 949.3
20260506134928 73 226 2.0 12.0 0.00 0.00 0.00 100 949.4
20260506134826 73 213 3.0 12.0 0.00 0.00 0.00 100 949.3
20260506134622 73 192 4.0 15.0 0.00 0.00 0.00 100 949.3
20260506134409 73 203 4.0 15.0 0.00 0.00 0.00 100 949.3
20260506134309 73 211 4.0 15.0 0.00 0.00 0.00 100 949.4
20260506134206 73 247 2.0 11.0 0.00 0.00 0.00 100 949.4
20260506134004 74 230 2.0 10.0 0.00 0.00 0.00 100 949.4
20260506133801 73 202 2.0 11.0 0.00 0.00 0.00 100 949.4
20260506133700 73 207 2.0 11.0 0.00 0.00 0.00 100 949.4
20260506133558 72 195 3.0 13.0 0.00 0.00 0.00 100 949.3
20260506133354 72 190 4.0 15.0 0.00 0.00 0.00 100 949.4
20260506133151 71 190 5.0 15.0 0.00 0.00 0.00 100 949.2
20260506133050 71 202 3.0 12.0 0.00 0.00 0.00 100 949.2
20260506132948 72 198 3.0 12.0 0.00 0.00 0.00 100 949.4
20260506132744 72 211 2.0 11.0 0.00 0.00 0.00 100 949.4
20260506132541 71 202 3.0 16.0 0.00 0.00 0.00 100 949.4
20260506132441 71 211 3.0 16.0 0.00 0.00 0.00 100 949.4
20260506132338 71 203 3.0 16.0 0.00 0.00 0.00 100 949.3
20260506132134 71 191 4.0 16.0 0.00 0.00 0.00 100 949.3
20260506131931 72 185 4.0 14.0 0.00 0.00 0.00 100 949.3
20260506131831 72 189 3.0 14.0 0.00 0.00 0.00 100 949.3
20260506131729 72 206 3.0 14.0 0.00 0.00 0.00 100 949.2
20260506131526 73 215 2.0 8.0 0.00 0.00 0.00 100 949.3
20260506131324 73 228 2.0 7.0 0.00 0.00 0.00 100 949.3
20260506131223 73 224 2.0 8.0 0.00 0.00 0.00 100 949.3
20260506131120 73 246 2.0 8.0 0.00 0.00 0.00 100 949.4
20260506130917 73 209 3.0 10.0 0.00 0.00 0.00 100 949.3
20260506130715 73 191 4.0 11.0 0.00 0.00 0.00 100 949.5
20260506130614 73 187 4.0 13.0 0.00 0.00 0.00 100 949.4
20260506130511 73 189 3.0 13.0 0.00 0.00 0.00 100 949.3
20260506130308 73 205 2.0 15.0 0.00 0.00 0.00 100 949.4
20260506130105 73 208 2.0 15.0 0.00 0.00 0.00 100 949.5
20260506130005 73 215 3.0 15.0 0.00 0.00 0.00 100 949.5
20260506125902 73 230 2.0 12.0 0.00 0.00 0.00 100 949.5
20260506125659 73 0 2.0 7.0 0.00 0.00 0.00 100 949.5
20260506125456 73 233 2.0 9.0 0.00 0.00 0.00 100 949.3
20260506125355 73 236 3.0 14.0 0.00 0.00 0.00 100 949.5
20260506125254 73 243 3.0 14.0 0.00 0.00 0.00 100 949.5
20260506125050 72 239 4.0 14.0 0.00 0.00 0.00 100 949.6
20260506124846 72 229 4.0 13.0 0.00 0.00 0.00 100 949.6
20260506124746 72 236 4.0 13.0 0.00 0.00 0.00 100 949.6
20260506124643 72 237 4.0 13.0 0.00 0.00 0.00 100 949.6
20260506124439 73 235 3.0 13.0 0.00 0.00 0.00 100 949.6
20260506124237 73 236 3.0 13.0 0.00 0.00 0.00 100 949.6
20260506124136 73 238 2.0 13.0 0.00 0.00 0.00 100 949.6
20260506124034 73 240 2.0 8.0 0.00 0.00 0.00 100 949.6
20260506123830 73 229 2.0 8.0 0.00 0.00 0.00 100 949.7
20260506123627 73 226 2.0 11.0 0.00 0.00 0.00 100 949.8
20260506123527 73 220 2.0 11.0 0.00 0.00 0.00 100 949.8
20260506123425 73 236 2.0 17.0 0.00 0.00 0.00 100 949.8
20260506123221 72 241 2.0 17.0 0.00 0.00 0.00 100 949.7
20260506123018 72 238 2.0 9.0 0.00 0.00 0.00 100 949.8
20260506122917 72 240 2.0 11.0 0.00 0.00 0.00 100 949.8
20260506122815 72 243 2.0 11.0 0.00 0.00 0.00 100 949.8
20260506122612 73 222 2.0 11.0 0.00 0.00 0.00 100 949.5
20260506122409 73 210 2.0 10.0 0.00 0.00 0.00 100 949.8
20260506122309 73 218 2.0 10.0 0.00 0.00 0.00 100 949.8
20260506122206 73 237 2.0 10.0 0.00 0.00 0.00 100 949.9
20260506122003 73 252 2.0 9.0 0.00 0.00 0.00 100 949.8
20260506121800 73 207 2.0 11.0 0.00 0.00 0.00 100 949.8
20260506121700 73 204 2.0 11.0 0.00 0.00 0.00 100 949.8
20260506121558 73 197 2.0 11.0 0.00 0.00 0.00 100 949.8
20260506121355 73 209 2.0 10.0 0.00 0.00 0.00 100 949.8
20260506121152 73 204 3.0 13.0 0.00 0.00 0.00 100 949.8
20260506121051 73 195 3.0 13.0 0.00 0.00 0.00 100 949.8
20260506120948 73 201 3.0 13.0 0.00 0.00 0.00 100 949.6
20260506120745 72 202 3.0 15.0 0.00 0.00 0.00 100 949.7
20260506120542 72 177 4.0 15.0 0.00 0.00 0.00 100 949.8
20260506120442 72 173 6.0 15.0 0.00 0.00 0.00 100 949.6
20260506120340 72 171 6.0 15.0 0.00 0.00 0.00 100 949.7
20260506120136 72 171 4.0 15.0 0.00 0.00 0.00 100 949.7
20260506115932 72 180 4.0 13.0 0.00 0.00 0.00 100 949.7
20260506115832 73 179 4.0 13.0 0.00 0.00 0.00 100 949.8
20260506115729 73 179 4.0 13.0 0.00 0.00 0.00 100 949.6
20260506115526 72 179 3.0 12.0 0.00 0.00 0.00 100 949.7
20260506115322 73 127 2.0 12.0 0.00 0.00 0.00 100 949.7
20260506115222 72 126 3.0 12.0 0.00 0.00 0.00 100 949.8
20260506115120 72 151 3.0 12.0 0.00 0.00 0.00 100 949.7
20260506114917 72 197 3.0 12.0 0.00 0.00 0.00 100 949.8
20260506114714 72 194 3.0 17.0 0.00 0.00 0.00 100 949.8
20260506114613 72 183 4.0 17.0 0.00 0.00 0.00 100 949.7
20260506114510 71 183 4.0 17.0 0.00 0.00 0.00 100 949.6
20260506114307 71 213 4.0 14.0 0.00 0.00 0.00 100 949.8
20260506114105 71 240 4.0 14.0 0.00 0.00 0.00 100 949.8
20260506114004 71 254 6.0 17.0 0.00 0.00 0.00 100 949.8
20260506113902 71 256 5.0 17.0 0.00 0.00 0.00 100 949.8
20260506113658 70 254 6.0 17.0 0.00 0.00 0.00 100 949.7
20260506113455 70 232 3.0 15.0 0.00 0.00 0.00 100 949.8
20260506113355 70 232 3.0 15.0 0.00 0.00 0.00 100 949.9
20260506113253 70 216 3.0 12.0 0.00 0.00 0.00 100 949.9
20260506113050 70 235 4.0 18.0 0.00 0.00 0.00 100 949.9
20260506112847 70 237 3.0 18.0 0.00 0.00 0.00 100 949.9
20260506112746 70 219 3.0 13.0 0.00 0.00 0.00 100 949.9
20260506112644 70 255 4.0 13.0 0.00 0.00 0.00 100 949.9
20260506112441 69 261 8.0 17.0 0.00 0.00 0.00 100 950.0
20260506112238 69 261 6.0 17.0 0.00 0.00 0.00 100 949.8
20260506112137 71 248 4.0 17.0 0.00 0.00 0.00 100 949.8
20260506112035 71 249 3.0 15.0 0.00 0.00 0.00 100 949.8
20260506111832 71 250 5.0 15.0 0.00 0.00 0.00 100 950.0
20260506111629 70 251 5.0 15.0 0.00 0.00 0.00 100 949.9
20260506111528 71 240 3.0 15.0 0.00 0.00 0.00 100 949.9
20260506111426 71 241 3.0 13.0 0.00 0.00 0.00 100 950.0
20260506111224 71 231 3.0 12.0 0.00 0.00 0.00 100 949.9
20260506111020 71 242 5.0 19.0 0.00 0.00 0.00 100 949.9
20260506110920 71 243 4.0 19.0 0.00 0.00 0.00 100 950.0
20260506110818 71 246 3.0 19.0 0.00 0.00 0.00 100 950.0
20260506110601 71 243 2.0 10.0 0.00 0.00 0.00 100 949.9
20260506110359 70 251 6.0 20.0 0.00 0.00 0.00 100 949.9
20260506110258 70 252 7.0 20.0 0.00 0.00 0.00 100 949.9
20260506110155 70 250 6.0 20.0 0.00 0.00 0.00 100 949.8
20260506105953 70 233 4.0 13.0 0.00 0.00 0.00 100 949.9
20260506105750 70 229 4.0 16.0 0.00 0.00 0.00 100 950.0
20260506105650 71 231 4.0 16.0 0.00 0.00 0.00 100 950.0
20260506105547 70 232 4.0 16.0 0.00 0.00 0.00 100 950.0
20260506105344 70 238 4.0 14.0 0.00 0.00 0.00 100 950.0
20260506105140 71 235 3.0 13.0 0.00 0.00 0.00 100 949.9
20260506105039 71 233 3.0 13.0 0.00 0.00 0.00 100 950.0
20260506104937 71 232 3.0 16.0 0.00 0.00 0.00 100 950.0
20260506104734 71 235 2.0 16.0 0.00 0.00 0.00 100 950.0
20260506104531 71 242 2.0 10.0 0.00 0.00 0.00 100 950.1
20260506104431 71 246 2.0 10.0 0.00 0.00 0.00 100 950.0
20260506104328 71 243 2.0 10.0 0.00 0.00 0.00 100 950.0
20260506104125 71 0 2.0 10.0 0.00 0.00 0.00 100 950.1
20260506103922 70 186 3.0 11.0 0.00 0.00 0.00 100 950.1
20260506103821 70 179 3.0 15.0 0.00 0.00 0.00 100 950.1
20260506103719 70 179 4.0 15.0 0.00 0.00 0.00 100 950.0
20260506103516 70 187 3.0 15.0 0.00 0.00 0.00 100 950.0
20260506103313 71 240 2.0 11.0 0.00 0.00 0.00 100 950.1
20260506103212 70 231 2.0 11.0 0.00 0.00 0.00 100 950.1
20260506103110 70 214 3.0 12.0 0.00 0.00 0.00 100 950.1
20260506102907 70 209 2.0 12.0 0.00 0.00 0.00 100 950.1
20260506102704 70 208 2.0 12.0 0.00 0.00 0.00 100 950.1
20260506102603 71 197 2.0 12.0 0.00 0.00 0.00 100 950.1
20260506102500 71 198 2.0 12.0 0.00 0.00 0.00 100 950.1
20260506102258 71 185 2.0 12.0 0.00 0.00 0.00 100 950.1
20260506102055 71 200 2.0 9.0 0.00 0.00 0.00 100 950.2
20260506101954 71 213 2.0 6.0 0.00 0.00 0.00 100 950.2
20260506101852 71 218 2.0 6.0 0.00 0.00 0.00 100 950.2
20260506101649 71 228 1.0 8.0 0.00 0.00 0.00 100 950.3
20260506101446 70 214 2.0 8.0 0.00 0.00 0.00 100 950.3
20260506101345 70 207 2.0 8.0 0.00 0.00 0.00 100 950.4
20260506101242 70 210 2.0 10.0 0.00 0.00 0.00 100 950.4
20260506101040 69 217 2.0 12.0 0.00 0.00 0.00 100 950.2
20260506100836 68 221 2.0 8.0 0.00 0.00 0.00 100 950.3
20260506100736 68 217 2.0 10.0 0.00 0.00 0.00 100 950.2
20260506100633 68 219 2.0 10.0 0.00 0.00 0.00 100 950.2
20260506100429 68 242 3.0 15.0 0.00 0.00 0.00 100 950.3
20260506100226 67 247 4.0 15.0 0.00 0.00 0.00 100 950.3
20260506100126 67 242 4.0 15.0 0.00 0.00 0.00 100 950.2
20260506100023 67 241 5.0 15.0 0.00 0.00 0.00 100 950.2
20260506095820 67 250 6.0 17.0 0.00 0.00 0.00 100 950.2
20260506095617 67 253 6.0 17.0 0.00 0.00 0.00 100 950.1
20260506095516 68 250 5.0 17.0 0.00 0.00 0.00 100 950.2
20260506095413 68 246 5.0 16.0 0.00 0.00 0.00 100 950.2
20260506095211 68 237 5.0 19.0 0.00 0.00 0.00 100 950.0
20260506095008 68 265 7.0 19.0 0.00 0.00 0.00 100 950.0
20260506094907 67 269 7.0 19.0 0.00 0.00 0.00 100 949.8
20260506094805 67 269 7.0 16.0 0.00 0.00 0.00 100 950.0
20260506094602 69 243 3.0 16.0 0.00 0.00 0.00 100 950.1
20260506094358 70 266 2.0 8.0 0.00 0.00 0.00 100 950.1
20260506094258 70 0 2.0 7.0 0.00 0.00 0.00 100 950.1
20260506094155 70 238 2.0 9.0 0.00 0.00 0.00 100 950.2
20260506093952 70 229 3.0 9.0 0.00 0.00 0.00 100 950.2
20260506093749 69 233 2.0 9.0 0.00 0.00 0.00 100 950.1
20260506093648 69 229 2.0 8.0 0.00 0.00 0.00 100 950.2
20260506093545 69 232 2.0 12.0 0.00 0.00 0.00 100 950.1
20260506093342 69 228 2.0 12.0 0.00 0.00 0.00 100 950.1
20260506093140 69 237 4.0 17.0 0.00 0.00 0.00 100 950.0
20260506093039 69 246 4.0 17.0 0.00 0.00 0.00 100 950.0
20260506092936 69 247 4.0 17.0 0.00 0.00 0.00 100 950.0
20260506092733 68 241 4.0 15.0 0.00 0.00 0.00 100 950.0
20260506092530 68 227 2.0 12.0 0.00 0.00 0.00 100 949.9
20260506092430 68 221 2.0 11.0 0.00 0.00 0.00 100 949.9
20260506092328 68 218 2.0 11.0 0.00 0.00 0.00 100 950.0
20260506092124 68 217 2.0 9.0 0.00 0.00 0.00 100 949.9
20260506091922 68 220 2.0 9.0 0.00 0.00 0.00 100 950.0
20260506091821 67 227 2.0 9.0 0.00 0.00 0.00 100 949.9
20260506091718 67 235 2.0 9.0 0.00 0.00 0.00 100 949.9
20260506091515 67 244 2.0 10.0 0.00 0.00 0.00 100 950.0
20260506091312 67 241 3.0 10.0 0.00 0.00 0.00 100 950.0
20260506091212 67 235 3.0 10.0 0.00 0.00 0.00 100 950.0
20260506091109 67 214 2.0 10.0 0.00 0.00 0.00 100 949.9
20260506090906 67 214 2.0 8.0 0.00 0.00 0.00 100 950.0
20260506090703 68 215 2.0 8.0 0.00 0.00 0.00 100 949.9
20260506090603 68 224 2.0 8.0 0.00 0.00 0.00 100 949.9
20260506090500 68 240 2.0 8.0 0.00 0.00 0.00 100 950.1
20260506090257 68 239 2.0 8.0 0.00 0.00 0.00 100 950.0
20260506090053 68 243 3.0 14.0 0.00 0.00 0.00 100 950.0
20260506085953 68 245 3.0 14.0 0.00 0.00 0.00 100 950.0
20260506085850 67 247 3.0 14.0 0.00 0.00 0.00 100 950.0
20260506085647 67 218 2.0 9.0 0.00 0.00 0.00 100 949.9
20260506085444 67 229 2.0 20.0 0.00 0.00 0.00 100 949.9
20260506085343 67 224 3.0 20.0 0.00 0.00 0.00 100 949.8
20260506085240 67 226 3.0 20.0 0.00 0.00 0.00 100 949.9
20260506085038 67 216 2.0 10.0 0.00 0.00 0.00 100 949.9
20260506084835 67 235 3.0 15.0 0.00 0.00 0.00 100 950.0
20260506084734 67 237 3.0 15.0 0.00 0.00 0.00 100 949.9
20260506084632 67 234 3.0 15.0 0.00 0.00 0.00 100 949.9
20260506084430 67 226 2.0 12.0 0.00 0.00 0.00 100 949.9
20260506084227 67 236 3.0 17.0 0.00 0.00 0.00 100 949.9
20260506084127 67 244 4.0 17.0 0.00 0.00 0.00 100 949.9
20260506084024 67 247 4.0 17.0 0.00 0.00 0.00 100 949.7
20260506083821 66 239 4.0 12.0 0.00 0.00 0.00 100 949.9
20260506083618 67 222 3.0 12.0 0.00 0.00 0.00 100 949.9
20260506083517 67 228 3.0 12.0 0.00 0.00 0.00 100 949.9
20260506083415 67 226 2.0 10.0 0.00 0.00 0.00 100 949.8
20260506083212 67 184 3.0 14.0 0.00 0.00 0.00 100 949.9
20260506083009 67 209 4.0 14.0 0.00 0.00 0.00 100 949.8
20260506082908 67 223 3.0 13.0 0.00 0.00 0.00 100 949.8
20260506082805 66 238 4.0 13.0 0.00 0.00 0.00 100 949.7
20260506082551 66 223 3.0 13.0 0.00 0.00 0.00 100 949.7
20260506082349 66 219 2.0 8.0 0.00 0.00 0.00 100 949.8
20260506082248 66 226 2.0 12.0 0.00 0.00 0.00 100 949.7
20260506082145 66 229 2.0 12.0 0.00 0.00 0.00 100 949.8
20260506081942 66 240 2.0 14.0 0.00 0.00 0.00 100 949.8
20260506081739 66 227 3.0 14.0 0.00 0.00 0.00 100 949.8
20260506081638 65 231 3.0 14.0 0.00 0.00 0.00 100 949.8
20260506081536 65 223 2.0 10.0 0.00 0.00 0.00 100 949.9
20260506081333 65 218 2.0 13.0 0.00 0.00 0.00 100 949.8
20260506081130 66 218 2.0 13.0 0.00 0.00 0.00 100 949.8
20260506081029 66 220 2.0 13.0 0.00 0.00 0.00 100 949.8
20260506080927 66 224 2.0 7.0 0.00 0.00 0.00 100 949.9
20260506080724 65 225 2.0 9.0 0.00 0.00 0.00 100 949.8
20260506080520 65 223 2.0 10.0 0.00 0.00 0.00 100 949.9
20260506080420 65 222 2.0 10.0 0.00 0.00 0.00 100 949.7
20260506080317 65 221 2.0 10.0 0.00 0.00 0.00 100 949.8
20260506080114 65 223 2.0 7.0 0.00 0.00 0.00 100 949.8
20260506073433 63 251 2.0 10.0 0.00 0.00 0.00 100 949.7
20260506073333 64 217 2.0 9.0 0.00 0.00 0.00 100 949.6
20260506073230 63 221 2.0 12.0 0.00 0.00 0.00 100 949.7
20260506073028 63 217 2.0 16.0 0.00 0.00 0.00 100 949.7
20260506072824 63 241 2.0 16.0 0.00 0.00 0.00 100 949.6
20260506072724 63 255 2.0 16.0 0.00 0.00 0.00 100 949.5
20260506072622 63 260 2.0 8.0 0.00 0.00 0.00 100 949.7
20260506072419 63 220 2.0 12.0 0.00 0.00 0.00 100 949.7
20260506072216 62 217 3.0 12.0 0.00 0.00 0.00 100 949.6
20260506072115 63 221 3.0 10.0 0.00 0.00 0.00 100 949.7
20260506072013 62 224 2.0 10.0 0.00 0.00 0.00 100 949.5
20260506071810 62 227 3.0 14.0 0.00 0.00 0.00 100 949.4
20260506071607 62 230 4.0 14.0 0.00 0.00 0.00 100 949.5
20260506071507 62 222 4.0 14.0 0.00 0.00 0.00 100 949.5
20260506071404 62 218 3.0 13.0 0.00 0.00 0.00 100 949.5
20260506071201 62 213 2.0 9.0 0.00 0.00 0.00 100 949.4
20260506070957 62 0 2.0 13.0 0.00 0.00 0.00 100 949.4
20260506070857 62 0 2.0 13.0 0.00 0.00 0.00 100 949.5
20260506070754 62 211 2.0 13.0 0.00 0.00 0.00 100 949.4
20260506070550 62 238 2.0 13.0 0.00 0.00 0.00 100 949.4
20260506070347 62 250 2.0 10.0 0.00 0.00 0.00 100 949.4
20260506070247 62 270 2.0 10.0 0.00 0.00 0.00 100 949.3
20260506070144 62 0 2.0 10.0 0.00 0.00 0.00 100 949.5
20260506062449 60 215 2.0 12.0 0.00 0.00 0.00 100 949.3
20260506062245 60 226 3.0 19.0 0.00 0.00 0.00 100 949.2
20260506062042 59 231 3.0 19.0 0.00 0.00 0.00 100 949.3
20260506061941 60 226 3.0 19.0 0.00 0.00 0.00 100 949.2
20260506061839 60 217 3.0 12.0 0.00 0.00 0.00 100 949.2
20260506061636 60 215 3.0 12.0 0.00 0.00 0.00 100 949.3
20260506061433 60 222 3.0 15.0 0.00 0.00 0.00 100 949.2
20260506061333 60 217 3.0 15.0 0.00 0.00 0.00 100 949.3
20260506061230 60 219 3.0 15.0 0.00 0.00 0.00 100 949.2
20260506061027 59 219 3.0 14.0 0.00 0.00 0.00 100 949.2
20260506060824 60 236 3.0 20.0 0.00 0.00 0.00 100 949.2
20260506060723 60 234 3.0 20.0 0.00 0.00 0.00 100 949.2
20260506060621 60 233 3.0 20.0 0.00 0.00 0.00 100 949.1
20260506060418 60 0 1.0 8.0 0.00 0.00 0.00 100 949.2
20260506060215 60 226 2.0 10.0 0.00 0.00 0.00 100 949.2
20260506060114 60 229 2.0 10.0 0.00 0.00 0.00 100 949.1
20260506051248 57 281 6.0 15.0 0.00 0.00 0.00 100 948.6
20260506051147 57 273 5.0 15.0 0.00 0.00 0.00 100 948.4
20260506051044 57 260 4.0 14.0 0.00 0.00 0.00 100 948.3
20260506050842 57 231 3.0 15.0 0.00 0.00 0.00 100 948.4
20260506050638 57 220 3.0 15.0 0.00 0.00 0.00 100 948.2
20260506050538 57 229 4.0 15.0 0.00 0.00 0.00 100 948.2
20260506050435 57 232 4.0 15.0 0.00 0.00 0.00 100 948.3
20260506050231 57 235 4.0 18.0 0.00 0.00 0.00 100 948.3
20260506045013 56 236 5.0 21.0 0.00 0.00 0.00 100 948.3
20260506044810 56 241 7.0 32.0 0.00 0.00 0.00 100 948.4
20260506044710 56 244 6.0 32.0 0.00 0.00 0.00 100 948.3
20260506044607 55 244 7.0 32.0 0.00 0.00 0.00 100 948.5
20260506044405 55 241 6.0 32.0 0.00 0.00 0.00 100 948.3
20260506044202 55 234 6.0 27.0 0.00 0.00 0.00 100 948.3
20260506044101 55 239 6.0 27.0 0.00 0.00 0.00 100 948.2
20260506043959 55 240 6.0 27.0 0.00 0.00 0.00 100 948.3
20260506043756 55 249 7.0 29.0 0.00 0.00 0.00 100 948.2
20260506043552 55 243 6.0 29.0 0.00 0.00 0.00 100 948.2
20260506043451 55 242 6.0 29.0 0.00 0.00 0.00 100 948.4
20260506043349 55 232 5.0 21.0 0.00 0.00 0.00 100 948.1
20260506043146 55 228 4.0 16.0 0.00 0.00 0.00 100 948.2
20260506042943 55 237 4.0 24.0 0.00 0.00 0.00 100 948.2
20260506042842 55 237 4.0 24.0 0.00 0.00 0.00 100 948.2
20260506042739 55 243 4.0 24.0 0.00 0.00 0.00 100 948.3
20260506042537 55 239 4.0 15.0 0.00 0.00 0.00 100 948.1
20260506042333 55 237 4.0 20.0 0.00 0.00 0.00 100 948.1
20260506042233 55 228 4.0 20.0 0.00 0.00 0.00 100 948.1
20260506042131 55 225 4.0 20.0 0.00 0.00 0.00 100 947.9
20260506041928 56 227 4.0 21.0 0.00 0.00 0.00 100 948.0
20260506041725 55 228 4.0 21.0 0.00 0.00 0.00 100 948.0
20260506041625 55 228 4.0 21.0 0.00 0.00 0.00 100 948.0
20260506041522 55 220 4.0 15.0 0.00 0.00 0.00 100 948.0
20260506041319 56 222 3.0 15.0 0.00 0.00 0.00 100 948.1
20260506041116 56 232 4.0 15.0 0.00 0.00 0.00 100 947.9
20260506041016 56 234 3.0 21.0 0.00 0.00 0.00 100 948.1
20260506040914 56 225 3.0 21.0 0.00 0.00 0.00 100 948.0
20260506040711 56 223 3.0 21.0 0.00 0.00 0.00 100 947.9
20260506040508 56 236 3.0 12.0 0.00 0.00 0.00 100 947.8
20260506040408 56 226 3.0 12.0 0.00 0.00 0.00 100 948.0
20260506040306 56 223 3.0 13.0 0.00 0.00 0.00 100 948.0
20260506035859 56 259 2.0 12.0 0.00 0.00 0.00 100 947.9
20260506035759 56 260 2.0 13.0 0.00 0.00 0.00 100 947.8
20260506035656 56 233 2.0 20.0 0.00 0.00 0.00 100 948.0
20260506035453 56 0 2.0 20.0 0.00 0.00 0.00 100 947.9
20260506035250 56 237 3.0 12.0 0.00 0.00 0.00 100 947.7
20260506035149 56 226 4.0 18.0 0.00 0.00 0.00 100 947.9
20260506035047 56 239 4.0 21.0 0.00 0.00 0.00 100 947.9
20260506034844 56 242 5.0 21.0 0.00 0.00 0.00 100 947.9
20260506034641 56 238 5.0 20.0 0.00 0.00 0.00 100 947.7
20260506034541 56 237 5.0 22.0 0.00 0.00 0.00 100 948.1
20260506034439 56 238 5.0 22.0 0.00 0.00 0.00 100 948.0
20260506034236 56 235 4.0 22.0 0.00 0.00 0.00 100 948.0
20260506034034 56 233 2.0 12.0 0.00 0.00 0.00 100 948.2
20260506033933 56 233 3.0 12.0 0.00 0.00 0.00 100 948.2
20260506033831 56 234 3.0 12.0 0.00 0.00 0.00 100 948.2
20260506033627 56 221 2.0 13.0 0.00 0.00 0.00 100 948.0
20260506033425 56 216 2.0 9.0 0.00 0.00 0.00 100 948.1
20260506033324 56 213 2.0 9.0 0.00 0.00 0.00 100 948.1
20260506033221 56 228 2.0 10.0 0.00 0.00 0.00 100 948.2
20260506033018 56 226 2.0 10.0 0.00 0.00 0.00 100 948.2
20260506032815 56 217 2.0 12.0 0.00 0.00 0.00 100 948.1
20260506032714 56 219 2.0 12.0 0.00 0.00 0.00 100 948.2
20260506032612 56 221 3.0 12.0 0.00 0.00 0.00 100 948.3
20260506032409 56 221 2.0 12.0 0.00 0.00 0.00 100 948.2
20260506032205 56 222 2.0 12.0 0.00 0.00 0.00 100 948.2
20260506032105 56 220 2.0 11.0 0.00 0.00 0.00 100 948.2
20260506032002 56 222 2.0 10.0 0.00 0.00 0.00 100 948.3
20260506031759 56 219 2.0 12.0 0.00 0.00 0.00 100 948.2
20260506031556 56 221 2.0 12.0 0.00 0.00 0.00 100 948.3
20260506031455 56 224 2.0 11.0 0.00 0.00 0.00 100 948.3
20260506031353 56 230 2.0 11.0 0.00 0.00 0.00 100 948.2
20260506031149 56 232 2.0 11.0 0.00 0.00 0.00 100 948.3
20260506030946 56 244 2.0 10.0 0.00 0.00 0.00 100 948.3
20260506030832 56 241 2.0 10.0 0.00 0.00 0.00 100 948.3
20260506030730 56 236 2.0 10.0 0.00 0.00 0.00 100 948.3
20260506030527 56 218 2.0 12.0 0.00 0.00 0.00 100 948.3
20260506030325 56 221 2.0 12.0 0.00 0.00 0.00 100 948.3
20260506030224 56 221 2.0 12.0 0.00 0.00 0.00 100 948.4
20260506030121 56 221 2.0 8.0 0.00 0.00 0.00 100 948.2
20260506025918 56 0 2.0 5.0 0.00 0.00 0.00 100 948.3
20260506025715 57 255 3.0 10.0 0.00 0.00 0.00 100 948.3
20260506025614 56 254 4.0 13.0 0.00 0.00 0.00 100 948.3
20260506025512 57 252 4.0 13.0 0.00 0.00 0.00 100 948.5
20260506025308 56 234 3.0 13.0 0.00 0.00 0.00 100 948.4
20260506025106 57 221 2.0 13.0 0.00 0.00 0.00 100 948.4
20260506025005 56 216 2.0 13.0 0.00 0.00 0.00 100 948.4
20260506024903 56 210 2.0 8.0 0.00 0.00 0.00 100 948.4
20260506024700 57 217 2.0 7.0 0.00 0.00 0.00 100 948.5
20260506024456 57 218 2.0 7.0 0.00 0.00 0.00 100 948.4
20260506024356 57 227 2.0 7.0 0.00 0.00 0.00 100 948.3
20260506024254 57 211 2.0 13.0 0.00 0.00 0.00 100 948.4
20260506024051 57 212 2.0 13.0 0.00 0.00 0.00 100 948.2
20260506023847 57 207 2.0 13.0 0.00 0.00 0.00 100 948.3
20260506023746 57 201 2.0 16.0 0.00 0.00 0.00 100 948.3
20260506023644 57 205 2.0 16.0 0.00 0.00 0.00 100 948.4
20260506023442 57 201 2.0 16.0 0.00 0.00 0.00 100 948.4
20260506023238 57 227 2.0 7.0 0.00 0.00 0.00 100 948.4
20260506023138 57 222 2.0 8.0 0.00 0.00 0.00 100 948.4
20260506023035 57 202 2.0 13.0 0.00 0.00 0.00 100 948.5
20260506022832 57 178 3.0 13.0 0.00 0.00 0.00 100 948.4
20260506022629 57 174 2.0 10.0 0.00 0.00 0.00 100 948.4
20260506022528 57 0 1.0 5.0 0.00 0.00 0.00 100 948.5
20260506022426 58 0 1.0 5.0 0.00 0.00 0.00 100 948.5
20260506022222 58 246 2.0 8.0 0.00 0.00 0.00 100 948.4
20260506022019 58 265 2.0 8.0 0.00 0.00 0.00 100 948.3
20260506021919 58 235 2.0 8.0 0.00 0.00 0.00 100 948.6
20260506021816 58 244 2.0 8.0 0.00 0.00 0.00 100 948.5
20260506021614 58 187 1.0 6.0 0.00 0.00 0.00 100 948.5
20260506021411 58 128 2.0 6.0 0.00 0.00 0.00 100 948.4
20260506021310 58 130 2.0 6.0 0.00 0.00 0.00 100 948.4
20260506021208 58 135 2.0 6.0 0.00 0.00 0.00 100 948.4
20260506021004 58 296 2.0 5.0 0.00 0.00 0.00 100 948.4
20260506020801 58 0 2.0 5.0 0.00 0.00 0.00 100 948.4
20260506020700 59 0 2.0 5.0 0.00 0.00 0.00 100 948.4
20260506020558 59 227 2.0 7.0 0.00 0.00 0.00 100 948.5
20260506020354 59 178 4.0 15.0 0.00 0.00 0.00 100 948.4
20260506020152 59 166 6.0 15.0 0.00 0.00 0.00 100 948.4
20260506020051 59 167 6.0 15.0 0.00 0.00 0.00 100 948.3
20260506015949 59 170 6.0 15.0 0.00 0.00 0.00 100 948.2
20260506015746 59 173 5.0 13.0 0.00 0.00 0.00 100 948.4
20260506015543 59 176 5.0 14.0 0.00 0.00 0.00 100 948.3
20260506015442 59 176 4.0 14.0 0.00 0.00 0.00 100 948.2
20260506015340 59 176 4.0 14.0 0.00 0.00 0.00 100 948.2
20260506015137 59 200 2.0 8.0 0.00 0.00 0.00 100 948.2
20260506014933 59 181 3.0 10.0 0.00 0.00 0.00 100 948.2
20260506014833 59 182 3.0 10.0 0.00 0.00 0.00 100 948.3
20260506014730 59 171 4.0 12.0 0.00 0.00 0.00 100 948.4
20260506014528 59 173 3.0 12.0 0.00 0.00 0.00 100 948.3
20260506014325 59 170 5.0 21.0 0.00 0.00 0.00 100 948.4
20260506014224 59 167 4.0 21.0 0.00 0.00 0.00 100 948.2
20260506014121 59 171 4.0 21.0 0.00 0.00 0.00 100 948.2
20260506013918 59 180 3.0 15.0 0.00 0.00 0.00 100 948.3
20260506013715 59 200 3.0 15.0 0.00 0.00 0.00 100 948.3
20260506013615 59 195 3.0 15.0 0.00 0.00 0.00 100 948.3
20260506013512 59 213 2.0 12.0 0.00 0.00 0.00 100 948.4
20260506013310 59 186 3.0 12.0 0.00 0.00 0.00 100 948.1
20260506013106 59 184 4.0 14.0 0.00 0.00 0.00 100 948.1
20260506013006 59 187 4.0 14.0 0.00 0.00 0.00 100 948.1
20260506012904 59 184 4.0 12.0 0.00 0.00 0.00 100 948.1
20260506012701 59 196 4.0 16.0 0.00 0.00 0.00 100 948.1
20260506012458 59 199 4.0 16.0 0.00 0.00 0.00 100 948.0
20260506012357 59 192 5.0 22.0 0.00 0.00 0.00 100 947.8
20260506012255 59 189 5.0 22.0 0.00 0.00 0.00 100 947.8
20260506012051 59 182 4.0 22.0 0.00 0.00 0.00 100 948.0
20260506011848 59 192 4.0 15.0 0.00 0.00 0.00 100 947.8
20260506011748 59 197 3.0 15.0 0.00 0.00 0.00 100 947.8
20260506011646 59 198 4.0 15.0 0.00 0.00 0.00 100 947.9
20260506011443 60 187 4.0 13.0 0.00 0.00 0.00 100 947.9
20260506011240 60 190 4.0 13.0 0.00 0.00 0.00 100 947.9
20260506011140 60 192 4.0 14.0 0.00 0.00 0.00 100 947.9
20260506011038 60 196 4.0 16.0 0.00 0.00 0.00 100 947.9
20260506010835 60 190 6.0 19.0 0.00 0.00 0.00 100 947.9
20260506010631 60 191 4.0 19.0 0.00 0.00 0.00 100 948.0
20260506010531 60 198 4.0 16.0 0.00 0.00 0.00 100 948.0
20260506010429 60 193 4.0 20.0 0.00 0.00 0.00 100 947.9
20260506010226 60 187 5.0 20.0 0.00 0.00 0.00 100 948.0
20260506010023 59 188 5.0 20.0 0.00 0.00 0.00 100 948.0
20260506005922 59 191 4.0 17.0 0.00 0.00 0.00 100 947.9
20260506005820 59 190 4.0 17.0 0.00 0.00 0.00 100 948.0
20260506005617 59 202 3.0 13.0 0.00 0.00 0.00 100 948.1
20260506005413 59 187 3.0 16.0 0.00 0.00 0.00 100 948.0
20260506005312 60 188 4.0 16.0 0.00 0.00 0.00 100 948.0
20260506005210 60 191 4.0 16.0 0.00 0.00 0.00 100 948.0
20260506005006 60 182 5.0 16.0 0.00 0.00 0.00 100 948.1
20260506004803 60 177 4.0 16.0 0.00 0.00 0.00 100 948.1
20260506004703 60 179 3.0 16.0 0.00 0.00 0.00 100 948.2
20260506004600 60 194 3.0 13.0 0.00 0.00 0.00 100 948.2
20260506004357 60 206 3.0 19.0 0.00 0.00 0.00 100 948.1
20260506004153 60 202 3.0 19.0 0.00 0.00 0.00 100 948.2
20260506004053 60 210 3.0 13.0 0.00 0.00 0.00 100 948.1
20260506003855 60 195 3.0 12.0 0.00 0.00 0.00 100 948.3
20260506003652 60 191 4.0 16.0 0.00 0.00 0.00 100 948.2
20260506003552 60 191 4.0 17.0 0.00 0.00 0.00 100 948.2
20260506003450 60 192 4.0 17.0 0.00 0.00 0.00 100 948.1
20260506003246 60 186 4.0 17.0 0.00 0.00 0.00 100 948.0
20260506003043 60 188 3.0 14.0 0.00 0.00 0.00 100 948.2
20260506002942 60 193 4.0 14.0 0.00 0.00 0.00 100 948.1
20260506002840 60 183 4.0 15.0 0.00 0.00 0.00 100 948.1
20260506002636 60 178 4.0 15.0 0.00 0.00 0.00 100 948.2
20260506002433 60 184 5.0 18.0 0.00 0.00 0.00 100 948.1
20260506002319 61 186 4.0 18.0 0.00 0.00 0.00 100 948.1
20260506002217 61 183 5.0 18.0 0.00 0.00 0.00 100 948.0
20260506002014 61 185 5.0 20.0 0.00 0.00 0.00 100 948.0
20260506001810 61 173 7.0 23.0 0.00 0.00 0.00 100 948.1
20260506001710 61 170 6.0 23.0 0.00 0.00 0.00 100 948.1
20260506001607 61 171 7.0 23.0 0.00 0.00 0.00 100 948.1
20260506001403 61 172 6.0 20.0 0.00 0.00 0.00 100 948.2
20260506001201 61 175 6.0 22.0 0.00 0.00 0.00 100 948.2
20260506001100 61 178 4.0 22.0 0.00 0.00 0.00 100 948.2
20260506000957 61 184 4.0 22.0 0.00 0.00 0.00 100 948.1
20260506000754 61 179 5.0 17.0 0.00 0.00 0.00 100 948.2
20260506000551 61 176 5.0 17.0 0.00 0.00 0.00 100 948.3
20260506000450 61 174 4.0 17.0 0.00 0.00 0.00 100 948.2
20260506000348 61 177 4.0 17.0 0.00 0.00 0.00 100 948.1
20260506000145 61 178 4.0 16.0 0.00 0.00 0.00 100 948.2
20260505235941 61 178 4.0 14.0 0.00 0.00 0.00 100 948.3
20260505235841 61 175 4.0 14.0 0.00 0.00 0.00 100 948.3
20260505235739 61 176 4.0 19.0 0.00 0.00 0.00 100 948.3
20260505235535 61 183 4.0 19.0 0.00 0.00 0.00 100 948.2
20260505235332 61 185 5.0 16.0 0.00 0.00 0.00 100 948.3
20260505235232 62 174 6.0 19.0 0.00 0.00 0.00 100 948.3
20260505235130 62 174 6.0 19.0 0.00 0.00 0.00 100 948.4
20260505234927 62 174 6.0 19.0 0.00 0.00 0.00 100 948.3
20260505234724 62 174 6.0 17.0 0.00 0.00 0.00 100 948.4
20260505234623 62 171 7.0 17.0 0.00 0.00 0.00 100 948.3
20260505234520 62 171 5.0 11.0 0.00 0.00 0.00 100 948.5
20260505234317 62 176 4.0 12.0 0.00 0.00 0.00 100 948.4
20260505234114 62 164 7.0 22.0 0.00 0.00 0.00 100 948.5
20260505234013 62 163 7.0 22.0 0.00 0.00 0.00 100 948.4
20260505233910 62 162 8.0 22.0 0.00 0.00 0.00 100 948.5
20260505233707 61 163 5.0 15.0 0.00 0.00 0.00 100 948.5
20260505233505 60 169 4.0 14.0 0.00 0.00 0.00 100 948.5
20260505233404 60 186 2.0 6.0 0.00 0.00 0.00 100 948.6
20260505233302 60 216 2.0 7.0 0.00 0.00 0.00 100 948.5
20260505233059 59 54 4.0 8.0 0.00 0.00 0.00 100 948.6
20260505232856 59 95 4.0 8.0 0.00 0.00 0.00 100 948.5
20260505232755 60 122 4.0 8.0 0.00 0.00 0.00 100 948.6
20260505232652 60 137 3.0 10.0 0.00 0.00 0.00 100 948.6
20260505232449 61 147 4.0 12.0 0.00 0.00 0.00 100 948.7
20260505232246 61 163 4.0 12.0 0.00 0.00 0.00 100 948.6
20260505232145 60 177 4.0 12.0 0.00 0.00 0.00 100 948.5
20260505232043 60 164 4.0 12.0 0.00 0.00 0.00 100 948.8
20260505231839 60 149 4.0 11.0 0.00 0.00 0.00 100 948.6
20260505231636 58 235 3.0 9.0 0.00 0.00 0.00 100 948.6
20260505231535 57 270 3.0 7.0 0.00 0.00 0.00 100 948.7
20260505231433 57 324 4.0 7.0 0.00 0.00 0.00 100 948.7
20260505231229 57 355 4.0 6.0 0.00 0.00 0.00 100 948.5
20260505231026 57 352 4.0 8.0 0.00 0.00 0.00 100 948.6
20260505230925 57 346 6.0 13.0 0.00 0.00 0.00 100 948.7
20260505230823 58 344 6.0 13.0 0.00 0.00 0.00 100 948.6
20260505230620 58 328 5.0 13.0 0.00 0.00 0.00 100 948.5
20260505230416 59 286 4.0 12.0 0.00 0.00 0.00 100 948.5
20260505230315 59 192 5.0 14.0 0.00 0.00 0.00 100 948.5
20260505230213 60 181 6.0 14.0 0.00 0.00 0.00 100 948.6
20260505230011 62 176 5.0 14.0 0.00 0.00 0.00 100 948.4
20260505225807 61 217 4.0 12.0 0.00 0.00 0.00 100 948.5
20260505225706 61 246 5.0 15.0 0.00 0.00 0.00 100 948.4
20260505225604 60 258 5.0 15.0 0.00 0.00 0.00 100 948.4
20260505225400 60 262 5.0 15.0 0.00 0.00 0.00 100 948.5
20260505225157 60 166 3.0 8.0 0.00 0.00 0.00 100 948.6
20260505225057 60 163 2.0 8.0 0.00 0.00 0.00 100 948.6
20260505224955 60 187 2.0 8.0 0.00 0.00 0.00 100 948.5
20260505224752 60 173 2.0 8.0 0.00 0.00 0.00 100 948.5
20260505224549 59 271 3.0 9.0 0.00 0.00 0.00 100 948.6
20260505224448 59 292 3.0 9.0 0.00 0.00 0.00 100 948.5
20260505224345 59 309 4.0 9.0 0.00 0.00 0.00 100 948.5
20260505224142 57 341 4.0 9.0 0.00 0.00 0.00 100 948.5
20260505223939 57 343 4.0 7.0 0.00 0.00 0.00 100 948.6
20260505223838 57 345 4.0 7.0 0.00 0.00 0.00 100 948.5
20260505223736 57 351 5.0 7.0 0.00 0.00 0.00 100 948.6
20260505223532 57 352 5.0 7.0 0.00 0.00 0.00 100 948.7
20260505223329 57 342 4.0 6.0 0.00 0.00 0.00 100 948.6
20260505223229 57 330 3.0 6.0 0.00 0.00 0.00 100 948.6
20260505223127 57 332 2.0 5.0 0.00 0.00 0.00 100 948.7
20260505222924 57 354 2.0 4.0 0.00 0.00 0.00 100 948.6
20260505222722 57 4 2.0 4.0 0.00 0.00 0.00 100 948.5
20260505222621 57 8 2.0 3.0 0.00 0.00 0.00 100 948.6
20260505222519 57 45 2.0 3.0 0.00 0.00 0.00 100 948.6
20260505222316 57 55 2.0 3.0 0.00 0.00 0.00 100 948.7
20260505222113 57 56 1.0 3.0 0.00 0.00 0.00 100 948.7
20260505222012 57 73 1.0 4.0 0.00 0.00 0.00 100 948.9
20260505221909 57 83 1.0 4.0 0.00 0.00 0.00 100 948.8
20260505221707 58 75 3.0 5.0 0.00 0.00 0.00 100 948.9
20260505221503 58 75 3.0 5.0 0.00 0.00 0.00 100 948.9
20260505221403 58 82 3.0 5.0 0.00 0.00 0.00 100 948.9
20260505221300 58 83 3.0 6.0 0.00 0.00 0.00 100 948.9
20260505221058 58 78 4.0 6.0 0.00 0.00 0.00 100 948.9
20260505220855 58 79 3.0 6.0 0.00 0.00 0.00 100 949.1
20260505220754 58 76 3.0 4.0 0.00 0.00 0.00 100 949.0
20260505220651 58 72 2.0 4.0 0.00 0.00 0.00 100 949.1
20260505220448 58 64 1.0 3.0 0.00 0.00 0.00 100 949.1
20260505220245 58 353 1.0 3.0 0.00 0.00 0.00 100 949.0
20260505220145 58 349 1.0 3.0 0.00 0.00 0.00 100 949.1
20260505220043 58 357 2.0 3.0 0.00 0.00 0.00 100 949.2
20260505215840 59 54 3.0 5.0 0.00 0.00 0.00 100 949.1
20260505215637 59 62 4.0 5.0 0.00 0.00 0.00 100 949.1
20260505215536 59 59 4.0 5.0 0.00 0.00 0.00 100 949.3
20260505215435 59 55 4.0 5.0 0.00 0.00 0.00 100 949.2
20260505215231 59 63 3.0 5.0 0.00 0.00 0.00 100 949.4
20260505215029 60 97 2.0 5.0 0.00 0.00 0.00 100 949.4
20260505214928 60 0 2.0 5.0 0.00 0.00 0.00 100 949.3
20260505214825 60 53 3.0 6.0 0.00 0.00 0.00 100 949.4
20260505214622 60 51 3.0 6.0 0.00 0.00 0.00 100 949.3
20260505214405 61 86 3.0 6.0 0.00 0.00 0.00 100 949.2
20260505214305 62 121 3.0 6.0 0.00 0.00 0.00 100 949.3
20260505214202 62 129 4.0 6.0 0.00 0.00 0.00 100 949.3
20260505213959 63 154 4.0 15.0 0.00 0.00 0.00 100 949.4
20260505213755 63 157 5.0 15.0 0.00 0.00 0.00 100 949.3
20260505213655 63 158 5.0 15.0 0.00 0.00 0.00 100 949.3
20260505213553 63 157 6.0 14.0 0.00 0.00 0.00 100 949.3
20260505213350 63 155 6.0 15.0 0.00 0.00 0.00 100 949.4
20260505213146 63 163 6.0 16.0 0.00 0.00 0.00 100 949.3
20260505213046 63 165 6.0 16.0 0.00 0.00 0.00 100 949.5
20260505212943 63 168 6.0 16.0 0.00 0.00 0.00 100 949.5
20260505212740 63 165 4.0 14.0 0.00 0.00 0.00 100 949.4
20260505212537 63 173 3.0 14.0 0.00 0.00 0.00 100 949.6
20260505212437 62 172 3.0 9.0 0.00 0.00 0.00 100 949.6
20260505212334 63 170 4.0 10.0 0.00 0.00 0.00 100 949.5
20260505212132 63 162 4.0 14.0 0.00 0.00 0.00 100 949.5
20260505211928 63 173 3.0 13.0 0.00 0.00 0.00 100 949.6
20260505211827 63 180 3.0 10.0 0.00 0.00 0.00 100 949.6
20260505211724 63 184 3.0 10.0 0.00 0.00 0.00 100 949.5
20260505211522 63 179 3.0 10.0 0.00 0.00 0.00 100 949.6
20260505211318 63 176 5.0 14.0 0.00 0.00 0.00 100 949.6
20260505211218 63 173 6.0 14.0 0.00 0.00 0.00 100 949.6
20260505211115 63 173 5.0 14.0 0.00 0.00 0.00 100 949.7
20260505210912 63 178 4.0 14.0 0.00 0.00 0.00 100 949.6
20260505210709 63 177 4.0 17.0 0.00 0.00 0.00 100 949.7
20260505210609 63 178 4.0 17.0 0.00 0.00 0.00 100 949.8
20260505210506 63 177 4.0 17.0 0.00 0.00 0.00 100 949.7
20260505210302 63 189 3.0 14.0 0.00 0.00 0.00 100 949.6
20260505210059 63 182 4.0 15.0 0.00 0.00 0.00 100 949.8
20260505205959 63 184 4.0 15.0 0.00 0.00 0.00 100 949.7
20260505205856 63 180 4.0 15.0 0.00 0.00 0.00 100 949.7
20260505205653 63 185 3.0 11.0 0.00 0.00 0.00 100 949.8
20260505205450 63 191 4.0 16.0 0.00 0.00 0.00 100 949.8
20260505205349 63 169 4.0 16.0 0.00 0.00 0.00 100 949.8
20260505205247 63 169 4.0 16.0 0.00 0.00 0.00 100 949.8
20260505205045 63 172 2.0 13.0 0.00 0.00 0.00 100 949.7
20260505204842 63 180 3.0 11.0 0.00 0.00 0.00 100 949.8
20260505204741 63 171 3.0 11.0 0.00 0.00 0.00 100 949.8
20260505204638 63 173 3.0 11.0 0.00 0.00 0.00 100 949.8
20260505204435 63 186 2.0 7.0 0.00 0.00 0.00 100 949.8
20260505204232 63 205 2.0 7.0 0.00 0.00 0.00 100 949.8
20260505204131 63 190 2.0 10.0 0.00 0.00 0.00 100 949.8
20260505204029 63 191 3.0 10.0 0.00 0.00 0.00 100 949.8
20260505203826 64 188 3.0 13.0 0.00 0.00 0.00 100 949.8
20260505203623 63 189 2.0 13.0 0.00 0.00 0.00 100 949.8
20260505203522 63 189 2.0 6.0 0.00 0.00 0.00 100 949.7
20260505203419 63 187 2.0 9.0 0.00 0.00 0.00 100 949.8
20260505203216 64 177 4.0 15.0 0.00 0.00 0.00 100 949.7
20260505203014 64 176 5.0 15.0 0.00 0.00 0.00 100 949.9
20260505202913 64 180 3.0 13.0 0.00 0.00 0.00 100 949.8
20260505202810 64 182 2.0 13.0 0.00 0.00 0.00 100 949.9
20260505202607 64 172 2.0 12.0 0.00 0.00 0.00 100 949.8
20260505202404 64 178 3.0 12.0 0.00 0.00 0.00 100 949.8
20260505202306 64 183 3.0 10.0 0.00 0.00 0.00 100 949.8
20260505202202 64 183 3.0 10.0 0.00 0.00 0.00 100 949.9
20260505201958 64 174 4.0 10.0 0.00 0.00 0.00 100 949.8
20260505201755 64 173 4.0 10.0 0.00 0.00 0.00 100 949.8
20260505201655 64 174 3.0 10.0 0.00 0.00 0.00 100 949.9
20260505201552 64 177 3.0 10.0 0.00 0.00 0.00 100 949.9
20260505201350 64 178 3.0 9.0 0.00 0.00 0.00 100 949.9
20260505201146 65 177 4.0 13.0 0.00 0.00 0.00 100 949.9
20260505201046 65 179 4.0 13.0 0.00 0.00 0.00 100 949.9
20260505200943 65 174 6.0 14.0 0.00 0.00 0.00 100 949.9
20260505200741 65 173 6.0 14.0 0.00 0.00 0.00 100 949.9
20260505200538 65 171 4.0 13.0 0.00 0.00 0.00 100 949.9
20260505200438 65 175 4.0 13.0 0.00 0.00 0.00 100 949.9
20260505200336 65 173 4.0 13.0 0.00 0.00 0.00 100 949.9
20260505200133 65 170 5.0 14.0 0.00 0.00 0.00 100 949.9
20260505195931 65 171 5.0 14.0 0.00 0.00 0.00 100 950.0
20260505195830 65 182 4.0 14.0 0.00 0.00 0.00 100 949.9
20260505195727 65 183 3.0 12.0 0.00 0.00 0.00 100 949.9
20260505195525 65 173 4.0 12.0 0.00 0.00 0.00 100 949.8
20260505195321 65 173 4.0 11.0 0.00 0.00 0.00 100 949.8
20260505195220 65 176 4.0 11.0 0.00 0.00 0.00 100 950.0
20260505195118 64 184 2.0 11.0 0.00 0.00 0.00 100 950.0
20260505194914 64 187 2.0 9.0 0.00 0.00 0.00 100 949.9
20260505194712 64 196 1.0 9.0 0.00 0.00 0.00 100 949.9
20260505194611 64 0 1.0 4.0 0.00 0.00 0.00 100 950.0
20260505194508 64 0 1.0 4.0 0.00 0.00 0.00 100 950.0
20260505194305 65 204 2.0 9.0 0.00 0.00 0.00 100 949.9
20260505194102 65 200 2.0 9.0 0.00 0.00 0.00 100 950.0
20260505194002 65 194 2.0 9.0 0.00 0.00 0.00 100 949.9
20260505193859 65 195 2.0 7.0 0.00 0.00 0.00 100 950.0
20260505193656 65 190 2.0 14.0 0.00 0.00 0.00 100 949.9
20260505193453 65 193 2.0 14.0 0.00 0.00 0.00 100 949.8
20260505193353 65 200 2.0 6.0 0.00 0.00 0.00 100 949.9
20260505193251 65 191 2.0 6.0 0.00 0.00 0.00 100 949.9
20260505193048 65 180 2.0 6.0 0.00 0.00 0.00 100 949.9
20260505192844 66 175 3.0 11.0 0.00 0.00 0.00 100 949.9
20260505192743 66 176 3.0 11.0 0.00 0.00 0.00 100 949.9
20260505192641 66 178 3.0 11.0 0.00 0.00 0.00 100 949.9
20260505192438 66 215 3.0 8.0 0.00 0.00 0.00 100 950.0
20260505192235 66 197 3.0 16.0 0.00 0.00 0.00 100 950.0
20260505192134 66 191 4.0 16.0 0.00 0.00 0.00 100 950.0
20260505192032 66 177 4.0 16.0 0.00 0.00 0.00 100 949.9
20260505191829 66 174 4.0 11.0 0.00 0.00 0.00 100 950.0
20260505191625 66 173 3.0 10.0 0.00 0.00 0.00 100 949.9
20260505191524 66 175 3.0 11.0 0.00 0.00 0.00 100 950.1
20260505191422 66 183 3.0 11.0 0.00 0.00 0.00 100 950.1
20260505191219 66 181 3.0 13.0 0.00 0.00 0.00 100 950.0
20260505191016 66 188 3.0 13.0 0.00 0.00 0.00 100 950.0
20260505190915 65 191 2.0 13.0 0.00 0.00 0.00 100 950.0
20260505190812 65 195 2.0 9.0 0.00 0.00 0.00 100 950.1
20260505190608 65 209 1.0 9.0 0.00 0.00 0.00 100 950.0
20260505190355 65 177 2.0 8.0 0.00 0.00 0.00 100 950.1
20260505190255 66 174 2.0 8.0 0.00 0.00 0.00 100 950.1
20260505190152 66 174 2.0 8.0 0.00 0.00 0.00 100 950.1
20260505185949 65 174 1.0 5.0 0.00 0.00 0.00 100 950.0
20260505185746 66 0 1.0 6.0 0.00 0.00 0.00 100 950.0
20260505185645 66 0 2.0 6.0 0.00 0.00 0.00 100 950.0
20260505185543 66 204 2.0 8.0 0.00 0.00 0.00 100 950.0
20260505185339 65 226 2.0 8.0 0.00 0.00 0.00 100 950.0
20260505185136 65 205 2.0 6.0 0.00 0.00 0.00 100 950.0
20260505185036 66 209 2.0 6.0 0.00 0.00 0.00 100 949.9
20260505184934 66 190 2.0 6.0 0.00 0.00 0.00 100 950.0
20260505184731 66 0 1.0 3.0 0.00 0.00 0.00 100 950.0
20260505184528 66 186 2.0 11.0 0.00 0.00 0.00 100 950.0
20260505184427 66 192 2.0 11.0 0.00 0.00 0.00 100 950.0
20260505184325 66 195 2.0 11.0 0.00 0.00 0.00 100 950.0
20260505184122 66 215 2.0 6.0 0.00 0.00 0.00 100 950.0
20260505183919 66 182 2.0 7.0 0.00 0.00 0.00 100 949.9
20260505183818 66 173 3.0 9.0 0.00 0.00 0.00 100 949.8
20260505183716 66 178 3.0 10.0 0.00 0.00 0.00 100 949.8
20260505183513 66 188 2.0 11.0 0.00 0.00 0.00 100 949.8
20260505183310 66 188 2.0 16.0 0.00 0.00 0.00 100 949.8
20260505183209 67 191 2.0 16.0 0.00 0.00 0.00 100 949.8
20260505183107 67 185 3.0 16.0 0.00 0.00 0.00 100 949.8
20260505182903 66 194 2.0 10.0 0.00 0.00 0.00 100 949.8
20260505182701 66 194 1.0 10.0 0.00 0.00 0.00 100 949.8
20260505182600 66 204 1.0 6.0 0.00 0.00 0.00 100 949.9
20260505182457 66 198 1.0 8.0 0.00 0.00 0.00 100 949.9
20260505182254 67 192 2.0 8.0 0.00 0.00 0.00 100 949.9
20260505182051 67 202 2.0 8.0 0.00 0.00 0.00 100 949.9
20260505181950 67 206 2.0 9.0 0.00 0.00 0.00 100 949.9
20260505181848 67 201 2.0 9.0 0.00 0.00 0.00 100 949.8
20260505181644 67 194 2.0 9.0 0.00 0.00 0.00 100 949.9
20260505181441 67 186 2.0 9.0 0.00 0.00 0.00 100 949.9
20260505181341 67 174 3.0 9.0 0.00 0.00 0.00 100 949.9
20260505181239 67 176 3.0 9.0 0.00 0.00 0.00 100 949.9
20260505181036 67 173 3.0 9.0 0.00 0.00 0.00 100 949.8
20260505180833 67 184 2.0 14.0 0.00 0.00 0.00 100 949.8
20260505180732 67 183 3.0 14.0 0.00 0.00 0.00 100 949.8
20260505180629 68 178 3.0 14.0 0.00 0.00 0.00 100 949.8
20260505180426 68 174 4.0 14.0 0.00 0.00 0.00 100 949.9
20260505180223 68 174 4.0 15.0 0.00 0.00 0.00 100 949.8
20260505180122 68 178 4.0 15.0 0.00 0.00 0.00 100 949.8
20260505180020 68 179 4.0 15.0 0.00 0.00 0.00 100 949.8
20260505175818 68 188 4.0 12.0 0.00 0.00 0.00 100 949.8
20260505175614 68 196 3.0 12.0 0.00 0.00 0.00 100 949.9
20260505175514 68 195 2.0 11.0 0.00 0.00 0.00 100 949.8
20260505175412 68 208 2.0 11.0 0.00 0.00 0.00 100 949.9
20260505175208 68 182 2.0 9.0 0.00 0.00 0.00 100 949.9
20260505175005 68 179 3.0 15.0 0.00 0.00 0.00 100 950.0
20260505174904 68 181 4.0 15.0 0.00 0.00 0.00 100 950.0
20260505174801 68 171 3.0 15.0 0.00 0.00 0.00 100 950.0
20260505174559 68 176 3.0 10.0 0.00 0.00 0.00 100 950.0
20260505174356 68 185 4.0 10.0 0.00 0.00 0.00 100 949.8
20260505174255 68 189 4.0 13.0 0.00 0.00 0.00 100 949.9
20260505174152 68 187 5.0 13.0 0.00 0.00 0.00 100 949.8
20260505173950 69 180 4.0 17.0 0.00 0.00 0.00 100 949.9
20260505173747 69 173 5.0 19.0 0.00 0.00 0.00 100 949.9
20260505173647 69 177 5.0 19.0 0.00 0.00 0.00 100 950.0
20260505173544 69 183 4.0 19.0 0.00 0.00 0.00 100 949.8
20260505173341 69 187 3.0 13.0 0.00 0.00 0.00 100 949.9
20260505173138 69 177 4.0 13.0 0.00 0.00 0.00 100 949.8
20260505173038 69 177 4.0 13.0 0.00 0.00 0.00 100 949.9
20260505172936 69 186 3.0 13.0 0.00 0.00 0.00 100 949.8
20260505172732 69 190 3.0 13.0 0.00 0.00 0.00 100 949.8
20260505172530 69 208 3.0 10.0 0.00 0.00 0.00 100 949.8
20260505172429 69 213 2.0 10.0 0.00 0.00 0.00 100 949.8
20260505172327 69 225 2.0 9.0 0.00 0.00 0.00 100 949.8
20260505172124 69 215 2.0 12.0 0.00 0.00 0.00 100 950.0
20260505171921 69 176 4.0 13.0 0.00 0.00 0.00 100 949.8
20260505171820 69 172 4.0 13.0 0.00 0.00 0.00 100 949.8
20260505171718 69 172 4.0 13.0 0.00 0.00 0.00 100 949.7
20260505171515 70 188 3.0 11.0 0.00 0.00 0.00 100 949.8
20260505171311 70 187 2.0 10.0 0.00 0.00 0.00 100 949.8
20260505171210 70 181 2.0 10.0 0.00 0.00 0.00 100 949.8
20260505171108 70 192 2.0 6.0 0.00 0.00 0.00 100 949.8
20260505170906 70 176 3.0 11.0 0.00 0.00 0.00 100 949.8
20260505170703 71 174 4.0 15.0 0.00 0.00 0.00 100 949.8
20260505170602 71 172 4.0 15.0 0.00 0.00 0.00 100 949.7